« Back
NWS Peachtree City, Ga » Text Product » GA Regional Weather Roundup


Printer-friendly Version
Current Version              Previous Versions:   1  2  3  4  5  6  7  8  9  

Regional Weather Roundup

263
ASUS42 KFFC 220603
RWRGA
WEATHER ROUNDUP FOR GEORGIA
NATIONAL WEATHER SERVICE PEACHTREE CITY GA
200 AM EDT WED OCT 22 2014

NOTE: "FAIR" INDICATES FEW OR NO CLOUDS BELOW 12,000 FEET WITH NO
SIGNIFICANT WEATHER AND/OR OBSTRUCTIONS TO VISIBILITY.

* = USE WITH CAUTION. THE STATIONS MARKED WITH AN ASTERISK MAY NOT
REPORT WEATHER SUCH AS PRECIPITATION, FOG, OR THUNDER AND ARE NOT
QUALITY CONTROLLED BY NWS.

THE REMARK "TC" DENOTES TEMPERATURE READING IN DEGREES CELSIUS.

GAZ001>058-220700-
NORTH GEORGIA

CITY           SKY/WX    TMP DP  RH WIND       PRES   REMARKS
ATLANTA        CLEAR     53  46  77 CALM      30.02S
6HR MIN TEMP:  53; 6HR MAX TEMP:  66;

ATHENS         CLEAR     54  46  74 N5        30.00S
6HR MIN TEMP:  54; 6HR MAX TEMP:  64;

CHAMBLEE       CLEAR     53  44  71 N7        30.02F
6HR MIN TEMP:  51; 6HR MAX TEMP:  63;

PEACHTREE CITY CLEAR     48  46  93 CALM      30.04R
6HR MIN TEMP:  48; 6HR MAX TEMP:  61;

ROME           CLEAR     53  45  74 CALM      30.07R
6HR MIN TEMP:  50; 6HR MAX TEMP:  63;

WEST ATLANTA   CLEAR     54  50  87 N5        30.02F
6HR MIN TEMP:  51; 6HR MAX TEMP:  61;

GAINESVILLE    CLEAR     53  45  74 NW5       30.04S
6HR MIN TEMP:  51; 6HR MAX TEMP:  62;

CARTERSVILLE   CLEAR     48  45  89 CALM      30.06S
6HR MIN TEMP:  48; 6HR MAX TEMP:  58;



CITY           SKY/WX    TMP DP  RH WIND       PRES   REMARKS
DALTON*        CLEAR     50  45  81 NW7       30.07S
MARIETTA       CLEAR     55  46  72 N7        30.03S
$$

GAZ059>098-102>109-220700-
CENTRAL GEORGIA

CITY           SKY/WX    TMP DP  RH WIND       PRES   REMARKS
AUGUSTA-BUSH   CLEAR     52  45  77 N3        29.99S
6HR MIN TEMP:  50; 6HR MAX TEMP:  70;

AUGUSTA-DANIEL CLEAR     59  47  64 NW5       29.99S
6HR MIN TEMP:  58; 6HR MAX TEMP:  72;

COLUMBUS       CLEAR     59  50  72 CALM      30.02S
6HR MIN TEMP:  57; 6HR MAX TEMP:  70;

MACON          CLEAR     49  49 100 NW3       30.00F
6HR MIN TEMP:  49; 6HR MAX TEMP:  63;

ROBINS AFB     CLEAR     54  51  91 N6        30.00S


CITY           SKY/WX    TMP DP  RH WIND       PRES   REMARKS
LAGRANGE*      CLEAR     51  51  99 CALM      30.03S FOG
SYLVANIA*      CLEAR     57  55  93 CALM      29.98R
MILLEDGEVILLE* CLEAR     52  52 100 CALM      30.00S
$$

GAZ099>101-110>166-220700-
SOUTH GEORGIA

CITY           SKY/WX    TMP DP  RH WIND       PRES   REMARKS
SAVANNAH       CLEAR     60  53  77 W3        29.96S
6HR MIN TEMP:  59; 6HR MAX TEMP:  70;

VALDOSTA       CLEAR     54  50  86 CALM      29.98F
6HR MIN TEMP:  54; 6HR MAX TEMP:  62;

ALMA           CLEAR     53  52  96 NW3       29.98S
6HR MIN TEMP:  53; 6HR MAX TEMP:  63;

ST SIMONS      CLEAR     62  54  74 CALM      29.96S
6HR MIN TEMP:  62; 6HR MAX TEMP:  69;

FT STEWART     CLEAR     56  52  87 CALM      29.95S
ALBANY         CLEAR     57  53  86 N5        30.01F
HUNTER AFB     CLEAR     62  53  74 NW8       29.93F
MOODY AFB      CLEAR     58  53  84 CALM      29.97F
BRUNSWICK      CLEAR     57  54  88 CALM      29.97S


CITY           SKY/WX    TMP DP  RH WIND       PRES   REMARKS
BAINBRIDGE*    CLEAR     59  55  88 CALM      30.00S
MOULTRIE*      CLEAR     57  55  94 CALM      30.00S
VIDALIA*       CLEAR     59  52  77 NW3       29.98F
WAYCROSS*      CLEAR     60  58  93 CALM      29.97S
DOUGLAS*       CLEAR     55  54  94 CALM      30.00S
$$



USA.gov is the U.S. government's official web portal to all federal, state and local government web resources and services.